CW9461 Weather Reports


time (UTC)temp
F
wind
direction
speed
knots
gust
knots
rain 1hr
in
rain 24hr
in
rain mn
in
humidity
%
barometer
mb
20260903145104 63 145 2.6 5.2 0.00 0.00 0.00 80 1005.7
20260903144605 63 132 1.7 5.2 0.00 0.00 0.00 81 1005.4
20260903144104 62 155 1.7 5.2 0.00 0.00 0.00 81 1005.4
20260903143604 62 130 1.7 4.3 0.00 0.00 0.00 82 1005.4
20260903143104 62 138 1.7 5.2 0.00 0.00 0.00 82 1005.4
20260903142604 62 133 1.7 2.6 0.00 0.00 0.00 82 1005.4
20260903142105 62 145 1.7 4.3 0.00 0.00 0.00 82 1005.5
20260903141605 62 128 1.7 4.3 0.00 0.00 0.00 83 1005.4
20260903141104 62 112 1.7 4.3 0.00 0.00 0.00 83 1005.4
20260903140604 62 136 1.7 2.6 0.00 0.00 0.00 83 1005.4
20260903140104 62 127 0.9 4.3 0.00 0.00 0.00 83 1005.4
20260903135604 62 138 1.7 4.3 0.00 0.00 0.00 83 1005.4
20260903135104 61 112 1.7 5.2 0.00 0.00 0.00 83 1005.4
20260903134604 61 131 1.7 4.3 0.00 0.00 0.00 84 1005.4
20260903134104 61 143 1.7 4.3 0.00 0.00 0.00 84 1005.4
20260903133104 62 134 1.7 2.6 0.00 0.00 0.00 84 1005.4
20260903132604 62 135 1.7 5.2 0.00 0.00 0.00 84 1005.4
20260903132104 62 144 1.7 1.7 0.00 0.00 0.00 83 1005.4
20260903131604 62 125 1.7 2.6 0.00 0.00 0.00 83 1005.1
20260903130604 62 156 1.7 2.6 0.00 0.00 0.00 83 1005.2
20260903125604 62 157 1.7 2.6 0.00 0.00 0.00 82 1005.3
20260903125104 62 138 2.6 6.1 0.00 0.00 0.00 82 1005.4
20260903124604 62 130 1.7 7.0 0.00 0.00 0.00 82 1005.4
20260903124103 62 135 0.9 4.3 0.00 0.00 0.00 82 1005.4
20260903123604 62 145 0.9 2.6 0.00 0.00 0.00 82 1005.4
20260903123104 62 129 1.7 5.2 0.00 0.00 0.00 82 1005.7
20260903122603 62 157 0.9 2.6 0.00 0.00 0.00 82 1005.8
20260903121604 62 159 0.9 2.6 0.00 0.00 0.00 82 1005.4
20260903121104 62 158 1.7 4.3 0.00 0.00 0.00 82 1005.8
20260903120604 62 135 0.9 2.6 0.00 0.00 0.00 82 1005.8
20260903120104 62 157 0.9 2.6 0.00 0.00 0.00 82 1005.8
20260903115605 62 135 1.7 2.6 0.00 0.00 0.00 82 1005.8
20260903115104 62 135 0.9 2.6 0.00 0.00 0.00 82 1005.8
20260903114604 62 114 0.9 1.7 0.00 0.00 0.00 82 1005.8
20260903114104 61 135 0.9 2.6 0.00 0.00 0.00 83 1005.8
20260903113604 61 135 0.9 2.6 0.00 0.00 0.00 83 1005.8
20260903113104 61 135 0.9 2.6 0.00 0.00 0.00 83 1006.1
20260903112604 61 135 0.9 1.7 0.00 0.00 0.00 84 1006.1
20260903112104 61 126 0.9 1.7 0.00 0.00 0.00 84 1006.1
20260903111603 61 112 0.9 1.7 0.00 0.00 0.00 84 1006.3
20260903110105 61 135 0.0 1.7 0.00 0.00 0.00 84 1006.2
20260903105604 60 135 0.9 2.6 0.00 0.00 0.00 85 1006.4
20260903105103 60 135 0.0 1.7 0.00 0.00 0.00 85 1006.4
20260903104604 60 135 0.9 1.7 0.00 0.00 0.00 85 1006.4
20260903104104 60 135 0.9 1.7 0.00 0.00 0.00 85 1006.4
20260903103604 60 135 0.9 1.7 0.00 0.00 0.00 86 1006.4
20260903102604 60 109 0.9 2.6 0.00 0.00 0.00 86 1006.4
20260903101605 60 135 0.9 1.7 0.00 0.00 0.00 87 1006.4
20260903101104 60 135 0.0 1.7 0.00 0.00 0.00 87 1006.4
20260903100603 59 137 0.0 1.7 0.00 0.00 0.00 87 1006.4
20260903100104 59 135 0.9 1.7 0.00 0.00 0.00 87 1006.5
20260903095104 59 90 0.0 1.7 0.00 0.00 0.00 87 1006.7
20260903094604 59 135 0.9 1.7 0.00 0.00 0.00 87 1006.7
20260903093604 59 135 0.0 1.7 0.00 0.00 0.00 88 1006.5
20260903092604 59 157 0.0 0.9 0.00 0.00 0.00 88 1006.8
20260903091604 59 157 0.0 0.0 0.00 0.00 0.00 89 1006.8
20260903091104 59 157 0.0 0.9 0.00 0.00 0.00 89 1006.8
20260903090604 59 157 0.0 0.9 0.00 0.00 0.00 89 1006.8
20260903090104 59 90 0.0 0.0 0.00 0.00 0.00 89 1006.8
20260903085603 59 90 0.0 0.0 0.00 0.00 0.00 89 1006.8
20260903085104 59 90 0.0 0.0 0.00 0.00 0.00 89 1007.0
20260903084604 59 90 0.0 0.9 0.00 0.00 0.00 89 1006.8
20260903084104 59 109 0.9 0.9 0.00 0.00 0.00 89 1006.8
20260903082104 59 109 0.9 1.7 0.00 0.00 0.00 89 1006.8
20260903081604 59 122 0.0 1.7 0.00 0.00 0.00 88 1006.8
20260903081104 59 135 0.0 0.0 0.00 0.00 0.00 88 1006.8
20260903080604 59 244 0.0 0.0 0.00 0.00 0.00 88 1006.8
20260903080105 59 247 0.0 1.7 0.00 0.00 0.00 88 1006.8
20260903075104 59 157 0.0 0.0 0.00 0.00 0.00 88 1006.8
20260903074604 59 157 0.0 0.9 0.00 0.00 0.00 88 1006.8
20260903074103 59 79 0.0 4.3 0.00 0.00 0.00 88 1006.8
20260903073604 59 96 0.0 1.7 0.00 0.00 0.00 87 1006.8
20260903073104 59 135 0.0 0.0 0.00 0.00 0.00 86 1006.8
20260903072603 58 135 0.0 0.0 0.00 0.00 0.00 86 1006.8
20260903072104 59 135 0.0 0.0 0.00 0.00 0.00 86 1006.9
20260903071104 59 135 0.0 0.9 0.00 0.00 0.00 87 1006.8
20260903070603 59 135 0.0 0.0 0.00 0.00 0.00 87 1006.8
20260903070106 60 163 0.0 0.0 0.00 0.00 0.00 86 1006.8
20260903065606 59 198 0.0 0.0 0.00 0.00 0.00 86 1006.8
20260903065106 60 135 0.0 0.9 0.00 0.00 0.00 86 1006.8
20260903064607 59 112 0.0 0.0 0.00 0.00 0.00 85 1006.8
20260903064105 59 178 0.9 1.7 0.00 0.00 0.00 85 1006.8
20260903063607 59 157 0.0 0.0 0.00 0.00 0.00 84 1006.8
20260903063106 59 202 0.0 0.0 0.00 0.00 0.00 83 1006.9
20260903062607 59 127 0.0 0.0 0.00 0.00 0.00 83 1007.1
20260903062106 60 270 0.0 0.0 0.00 0.00 0.00 83 1007.1
20260903061606 60 270 0.0 0.0 0.00 0.00 0.00 83 1007.1
20260903061106 60 270 0.0 0.0 0.00 0.00 0.00 83 1007.1
20260903060606 60 270 0.0 0.9 0.00 0.00 0.00 82 1007.1
20260903060106 60 270 0.0 0.0 0.00 0.00 0.00 82 1007.1
20260903055105 61 292 0.0 0.9 0.00 0.00 0.00 81 1007.3
20260903054106 61 292 0.0 0.0 0.00 0.00 0.00 81 1007.2
20260903053605 61 247 0.0 1.7 0.00 0.00 0.00 80 1007.5
20260903053106 61 280 0.9 1.7 0.00 0.00 0.00 80 1007.5
20260903052605 61 247 0.9 1.7 0.00 0.00 0.00 80 1007.5
20260903052106 61 250 0.0 2.6 0.00 0.00 0.00 80 1007.5
20260903051106 62 202 0.9 1.7 0.00 0.00 0.00 79 1007.5
20260903050106 62 337 0.0 1.7 0.00 0.00 0.00 78 1007.5
20260903045606 62 302 0.0 1.7 0.00 0.00 0.00 78 1007.8
20260903044607 63 202 0.9 2.6 0.00 0.00 0.00 76 1007.5
20260903044105 63 157 0.9 2.6 0.00 0.00 0.00 76 1007.5
20260903043107 63 247 0.9 1.7 0.00 0.00 0.00 75 1007.5
20260903041606 64 157 0.0 1.7 0.00 0.00 0.00 74 1007.1
20260903041105 64 164 1.7 5.2 0.00 0.00 0.00 74 1007.1
20260903040107 63 175 0.0 2.6 0.00 0.00 0.00 74 1007.1
20260903035105 64 270 0.0 0.0 0.00 0.00 0.00 74 1006.8
20260903034606 64 157 0.0 1.7 0.00 0.00 0.00 73 1006.8
20260903034105 64 157 0.9 1.7 0.00 0.00 0.00 72 1006.8
20260903033605 64 198 0.0 0.9 0.00 0.00 0.00 71 1006.7
20260903033105 64 112 0.0 0.9 0.00 0.00 0.00 70 1006.5
20260903032606 65 292 0.0 0.0 0.00 0.00 0.00 70 1006.4
20260903032107 65 292 0.0 1.7 0.00 0.00 0.00 70 1006.4
20260903031605 66 292 0.0 0.9 0.00 0.00 0.00 70 1006.3
20260903031105 66 292 0.0 1.7 0.00 0.00 0.00 69 1006.1
20260903030605 66 220 0.9 2.6 0.00 0.00 0.00 68 1006.1
20260903030106 67 93 0.9 2.6 0.00 0.00 0.00 66 1006.1
20260903025605 67 202 0.9 4.3 0.00 0.00 0.00 65 1006.1
20260903025105 68 67 0.0 0.9 0.00 0.00 0.00 64 1006.1
20260903024606 68 143 0.9 1.7 0.00 0.00 0.00 63 1006.1
20260903024105 69 135 0.9 2.6 0.00 0.00 0.00 61 1006.1
20260903023606 70 214 0.0 1.7 0.00 0.00 0.00 60 1006.1
20260903023105 70 91 0.9 2.6 0.00 0.00 0.00 59 1006.0
20260903022105 71 194 0.9 2.6 0.00 0.00 0.00 58 1006.1
20260903021605 72 265 0.9 2.6 0.00 0.00 0.00 58 1006.1
20260903021107 72 112 0.0 1.7 0.00 0.00 0.00 58 1006.1
20260903020605 72 247 1.7 4.3 0.00 0.00 0.00 58 1006.1
20260903020105 72 232 0.0 5.2 0.00 0.00 0.00 58 1006.1
20260903015605 72 293 1.7 5.2 0.00 0.00 0.00 58 1006.1
20260903014605 72 274 1.7 5.2 0.00 0.00 0.00 56 1006.1
20260903014105 72 238 4.3 7.0 0.00 0.00 0.00 56 1006.1
20260903013606 72 286 2.6 6.1 0.00 0.00 0.00 55 1006.1
20260903011605 73 241 5.2 8.7 0.00 0.00 0.00 51 1006.1
20260903011105 74 242 4.3 7.8 0.00 0.00 0.00 50 1005.9
20260903010605 74 293 2.6 7.0 0.00 0.00 0.00 49 1006.1
20260903010105 75 254 5.2 10.4 0.00 0.00 0.00 48 1005.9
20260903005605 75 267 4.3 10.4 0.00 0.00 0.00 47 1006.1
20260903005106 76 244 3.5 7.8 0.00 0.00 0.00 46 1006.1
20260903004105 77 232 2.6 5.2 0.00 0.00 0.00 44 1006.1
20260903003605 76 148 0.9 7.0 0.00 0.00 0.00 44 1006.1
20260903003106 76 196 1.7 5.2 0.00 0.00 0.00 44 1006.1
20260903002606 76 244 2.6 5.2 0.00 0.00 0.00 43 1006.1
20260903001605 76 235 1.7 5.2 0.00 0.00 0.00 41 1006.1
20260903001105 75 228 4.3 7.8 0.00 0.00 0.00 42 1006.3
20260903000605 75 218 2.6 6.1 0.00 0.00 0.00 42 1006.4
20260903000105 74 214 2.6 6.1 0.00 0.00 0.00 42 1006.4
20260902235607 74 234 3.5 8.7 0.00 0.00 0.00 44 1006.4
20260902235105 74 239 5.2 11.3 0.00 0.00 0.00 45 1006.4
20260902234605 74 235 4.3 8.7 0.00 0.00 0.00 46 1006.4
20260902234105 74 258 4.3 10.4 0.00 0.00 0.00 47 1006.4
20260902233605 74 250 5.2 11.3 0.00 0.00 0.00 48 1006.4
20260902233105 74 246 4.3 8.7 0.00 0.00 0.00 49 1006.4
20260902232605 74 255 6.1 10.4 0.00 0.00 0.00 50 1006.4
20260902232105 74 235 2.6 6.1 0.00 0.00 0.00 51 1006.4
20260902231606 74 245 3.5 7.0 0.00 0.00 0.00 52 1006.6
20260902231105 74 247 5.2 10.4 0.00 0.00 0.00 52 1006.4
20260902230605 74 240 5.2 10.4 0.00 0.00 0.00 53 1006.4
20260902230107 75 225 4.3 8.7 0.00 0.00 0.00 53 1006.6
20260902225605 75 239 5.2 12.2 0.00 0.00 0.00 54 1006.6
20260902225105 75 264 2.6 8.7 0.00 0.00 0.00 55 1006.6
20260902224605 74 208 4.3 7.0 0.00 0.00 0.00 56 1006.8
20260902224105 74 230 4.3 10.4 0.00 0.00 0.00 56 1006.8
20260902223605 74 211 3.5 7.8 0.00 0.00 0.00 56 1006.8
20260902223105 74 239 6.1 10.4 0.00 0.00 0.00 56 1006.8
20260902222104 75 226 5.2 11.3 0.00 0.00 0.00 56 1006.8
20260902221106 74 229 4.3 10.4 0.00 0.00 0.00 57 1006.8
20260902220606 74 247 3.5 7.8 0.00 0.00 0.00 57 1006.8
20260902220105 74 227 2.6 7.8 0.00 0.00 0.00 57 1006.9
20260902215606 74 236 4.3 10.4 0.00 0.00 0.00 57 1007.1
20260902215105 75 241 2.6 7.0 0.00 0.00 0.00 56 1007.1
20260902214605 75 231 3.5 7.0 0.00 0.00 0.00 56 1007.1
20260902214105 75 157 2.6 8.7 0.00 0.00 0.00 57 1007.1
20260902213105 74 279 2.6 7.0 0.00 0.00 0.00 57 1007.1
20260902212604 74 232 3.5 7.8 0.00 0.00 0.00 57 1007.1
20260902212105 75 200 4.3 7.8 0.00 0.00 0.00 57 1007.1
20260902211605 75 238 2.6 7.0 0.00 0.00 0.00 56 1007.1
20260902211105 75 196 2.6 6.1 0.00 0.00 0.00 57 1007.1
20260902210605 74 220 1.7 7.0 0.00 0.00 0.00 59 1007.1
20260902210106 73 176 1.7 6.1 0.00 0.00 0.00 59 1007.5
20260902205106 74 225 4.3 7.0 0.00 0.00 0.00 59 1007.1
20260902204606 73 263 2.6 6.1 0.00 0.00 0.00 60 1007.1
20260902204105 73 223 2.6 7.0 0.00 0.00 0.00 60 1007.3
20260902203606 73 251 4.3 7.8 0.00 0.00 0.00 61 1007.5
20260902203106 73 191 2.6 6.1 0.00 0.00 0.00 62 1007.6
20260902202605 73 240 2.6 7.0 0.00 0.00 0.00 62 1007.5
20260902202105 73 229 3.5 7.0 0.00 0.00 0.00 63 1007.5
20260902201604 72 222 1.7 6.1 0.00 0.00 0.00 64 1007.6
20260902201105 71 221 2.6 7.8 0.00 0.00 0.00 65 1007.8
20260902200606 71 236 4.3 10.4 0.00 0.00 0.00 66 1007.8
20260902200105 71 254 3.5 7.8 0.00 0.00 0.00 66 1007.8
20260902195605 71 231 3.5 7.8 0.00 0.00 0.00 67 1007.8
20260902195105 71 238 6.1 8.7 0.00 0.00 0.00 69 1008.0
20260902194605 70 278 3.5 7.0 0.00 0.00 0.00 70 1008.1
20260902194104 69 274 4.3 7.8 0.00 0.00 0.00 70 1008.1
20260902193606 70 248 4.3 8.7 0.00 0.00 0.00 69 1008.1
20260902192606 70 257 4.3 11.3 0.00 0.00 0.00 68 1008.1
20260902192105 70 238 4.3 10.4 0.00 0.00 0.00 68 1008.1
20260902191605 70 249 2.6 7.0 0.00 0.00 0.00 68 1008.1
20260902190606 71 288 3.5 6.1 0.00 0.00 0.00 65 1008.1
20260902190104 72 254 2.6 5.2 0.00 0.00 0.00 63 1008.3
20260902185605 72 266 1.7 6.1 0.00 0.00 0.00 61 1008.3
20260902185104 72 240 1.7 5.2 0.00 0.00 0.00 61 1008.1
20260902183605 72 201 0.0 4.3 0.00 0.00 0.00 61 1008.1
20260902183104 71 157 0.9 1.7 0.00 0.00 0.00 62 1008.1
20260902182604 71 225 2.6 8.7 0.00 0.00 0.00 61 1008.1
20260902182105 72 226 2.6 4.3 0.00 0.00 0.00 61 1008.1
20260902181605 72 135 2.6 7.0 0.00 0.00 0.00 61 1008.1
20260902180605 72 130 1.7 6.1 0.00 0.00 0.00 62 1008.1
20260902180105 71 193 0.9 4.3 0.00 0.00 0.00 62 1007.8
20260902175605 71 136 0.9 5.2 0.00 0.00 0.00 62 1007.9
20260902175104 71 159 1.7 6.1 0.00 0.00 0.00 62 1007.8
20260902174604 71 203 0.9 6.1 0.00 0.00 0.00 62 1007.8
20260902174105 71 130 1.7 4.3 0.00 0.00 0.00 62 1007.8
20260902173605 71 221 2.6 6.1 0.00 0.00 0.00 63 1007.8
20260902173106 71 203 0.9 6.1 0.00 0.00 0.00 63 1007.8
20260902172605 70 167 1.7 4.3 0.00 0.00 0.00 63 1007.8
20260902172106 70 143 1.7 4.3 0.00 0.00 0.00 63 1007.8
20260902171604 70 136 0.0 7.0 0.00 0.00 0.00 64 1007.8
20260902171105 70 131 2.6 5.2 0.00 0.00 0.00 64 1007.8
20260902170604 69 143 1.7 4.3 0.00 0.00 0.00 64 1007.6
20260902170106 69 146 2.6 5.2 0.00 0.00 0.00 64 1007.8
20260902165105 69 145 1.7 4.3 0.00 0.00 0.00 64 1007.8
20260902164605 68 180 0.9 2.6 0.00 0.00 0.00 65 1007.8
20260902164105 68 214 1.7 4.3 0.00 0.00 0.00 65 1007.8
20260902163604 68 179 0.9 2.6 0.00 0.00 0.00 65 1007.8
20260902163104 68 181 2.6 6.1 0.00 0.00 0.00 65 1007.8
20260902162604 68 135 1.7 2.6 0.00 0.00 0.00 64 1007.8
20260902161606 68 123 0.9 1.7 0.00 0.00 0.00 64 1007.8
20260902161104 68 130 0.9 6.1 0.00 0.00 0.00 64 1007.8
20260902160105 68 78 1.7 2.6 0.00 0.00 0.00 66 1007.8
20260902155605 67 74 1.7 2.6 0.00 0.00 0.00 67 1007.8
20260902154604 65 147 1.7 4.3 0.00 0.00 0.00 71 1007.8
20260902154105 64 90 0.0 1.7 0.00 0.00 0.00 74 1007.8
20260902153604 63 135 0.0 0.9 0.00 0.00 0.00 75 1007.8
20260902153105 62 85 0.0 0.9 0.00 0.00 0.00 76 1007.8
20260902152605 62 90 0.0 0.0 0.00 0.00 0.00 76 1008.0
20260902152104 62 90 0.0 0.9 0.00 0.00 0.00 77 1007.9
20260902151604 62 90 0.9 0.9 0.00 0.00 0.00 78 1008.1
20260902151104 62 90 0.0 0.0 0.00 0.00 0.00 78 1007.8
20260902150605 61 90 0.0 0.0 0.00 0.00 0.00 79 1007.8
20260902150104 61 67 0.0 0.0 0.00 0.00 0.00 79 1007.8